This is the latest recevied weather packets stored in our database for station/object KA1AL. If no packets are shown the sender has not sent any weather packets the latest 1 day(s).
| Time | Temp. | Humidity | Pressure | Rain* | Wind** | Luminosity | Snow |
|---|---|---|---|---|---|---|---|
| 1778003003 | 22.78° C | 56% | 1003.5 hPa | 0 mm | 6.71 m/s, 214° | 641 W/m² | - |
| 1778002698 | 22.78° C | 58% | 1003.2 hPa | 0 mm | 2.68 m/s, 223° | 668 W/m² | - |
| 1778002395 | 22.78° C | 58% | 1003.6 hPa | 0 mm | 4.92 m/s, 154° | 649 W/m² | - |
| 1778002092 | 22.78° C | 55% | 1003.5 hPa | 0 mm | 7.15 m/s, 208° | 647 W/m² | - |
| 1778001790 | 22.78° C | 56% | 1003.7 hPa | 0 mm | 4.02 m/s, 211° | 640 W/m² | - |
| 1778001484 | 22.22° C | 57% | 1003.8 hPa | 0 mm | 2.24 m/s, 232° | 638 W/m² | - |
| 1778001181 | 22.22° C | 57% | 1004 hPa | 0 mm | 5.81 m/s, 234° | 670 W/m² | - |
| 1778000877 | 22.22° C | 57% | 1004.4 hPa | 0 mm | 6.71 m/s, 252° | 658 W/m² | - |
| 1778000575 | 21.67° C | 58% | 1004.1 hPa | 0 mm | 5.36 m/s, 245° | 678 W/m² | - |
| 1778000270 | 21.67° C | 58% | 1004.5 hPa | 0 mm | 4.02 m/s, 191° | 676 W/m² | - |
| 1777999966 | 21.67° C | 60% | 1004 hPa | 0 mm | 7.15 m/s, 167° | 671 W/m² | - |
| 1777999661 | 21.67° C | 57% | 1004.1 hPa | 0 mm | 7.15 m/s, 198° | 664 W/m² | - |
| 1777999359 | 21.67° C | 59% | 1004.5 hPa | 0 mm | 6.26 m/s, 202° | 662 W/m² | - |
| 1777999057 | 21.11° C | 59% | 1004.5 hPa | 0 mm | 4.92 m/s, 191° | 668 W/m² | - |
| 1777998755 | 21.67° C | 59% | 1004.5 hPa | 0 mm | 4.02 m/s, 217° | 669 W/m² | - |
| 1777998452 | 21.11° C | 59% | 1004.6 hPa | 0 mm | 4.92 m/s, 239° | 664 W/m² | - |
| 1777998149 | 20.56° C | 60% | 1004.6 hPa | 0 mm | 2.68 m/s, 209° | 655 W/m² | - |
| 1777997846 | 20.56° C | 61% | 1004.8 hPa | 0 mm | 2.24 m/s, 179° | 658 W/m² | - |
| 1777997544 | 20.56° C | 63% | 1004.8 hPa | 0 mm | 1.34 m/s, 192° | 670 W/m² | - |
| 1777997241 | 20.56° C | 61% | 1004.8 hPa | 0 mm | 4.92 m/s, 199° | 693 W/m² | - |
| 1777996939 | 19.44° C | 61% | 1005.1 hPa | 0 mm | 4.02 m/s, 215° | 791 W/m² | - |
| 1777996635 | 18.33° C | 65% | 1005 hPa | 0 mm | 3.58 m/s, 192° | 379 W/m² | - |
| 1777996331 | 18.33° C | 64% | 1005.5 hPa | 0 mm | 3.58 m/s, 185° | 278 W/m² | - |
| 1777996028 | 18.33° C | 64% | 1005.5 hPa | 0 mm | 3.58 m/s, 207° | 245 W/m² | - |
| 1777995724 | 18.33° C | 64% | 1005.5 hPa | 0 mm | 2.68 m/s, 235° | 251 W/m² | - |
* Rain latest hour (hover to see other rain measurements)
** Current wind speed in m/s (hover to see current wind gust speed)